Wind_Speed
2 1 3 6 8 7 7 7 6 4 5 3 2 4 5 6 8 5 4 4 1 2 7 5 8 15 19 19 18 17 14 17 23 24 28 33 35 35 36 39 42 44 48 48 44 43 41 39 38 38 41 43 44 46 47 48 49 50 50 50 50 49 49 48 48 48 48 47 47 46 46 44 42 42 41 40 38 37 35 34 32 30 29 28 27 26
2 3 7 9 9 7 5 5 4 3 3 2 3 5 5 5 8 7 2 4 1 2 5 3 7 16 18 17 19 17 11 14 20 20 25 32 33 35 35 38 42 43 44 43 43 43 43 42 40 40 42 44 46 47 47 48 49 49 50 51 50 50 51 51 50 50 50 48 47 47 46 44 44 44 44 42 40 39 37 36 34 33 32 30 29 28
1 7 10 7 4 4 3 4 5 4 4 2 2 2 4 4 6 7 3 4 2 3 4 4 6 16 20 17 17 17 11 18 25 24 27 31 30 33 35 37 39 39 39 38 38 39 40 42 41 41 43 45 47 47 47 48 48 48 50 51 51 51 52 52 51 51 52 49 48 48 46 44 44 45 45 43 41 39 39 37 36 35 34 32 31 30
2 7 7 3 7 7 3 3 5 3 2 3 3 2 5 3 1 4 4 3 1 3 3 4 6 14 18 13 13 14 12 16 22 23 27 30 31 34 35 35 36 37 37 36 35 34 35 37 39 42 44 45 46 47 48 49 49 49 49 50 50 51 52 52 52 52 52 50 48 47 47 46 46 46 44 43 43 41 40 39 38 37 35 34 33 32
8 6 3 5 5 5 3 2 5 4 3 4 5 6 7 5 5 7 4 4 3 2 2 3 5 8 8 8 10 7 5 10 14 16 22 26 28 31 32 32 33 35 36 34 34 33 33 34 36 39 41 43 45 47 48 48 49 49 49 48 49 50 51 52 52 51 50 50 50 49 49 49 49 48 46 46 45 43 42 41 40 39 37 36 34 34
9 5 6 5 2 3 5 4 5 7 3 4 6 10 10 8 7 6 4 5 4 4 2 1 4 7 4 8 14 8 6 11 8 8 17 24 24 24 26 28 28 30 32 34 34 33 32 32 32 34 37 41 44 46 46 46 47 48 48 48 48 50 51 52 52 52 51 51 52 53 53 53 52 51 50 49 47 45 44 43 41 40 39 38 37 36
4 0 3 4 4 4 4 5 5 7 3 4 4 7 7 6 4 4 2 1 1 3 3 3 0 7 5 9 16 9 9 14 9 6 12 18 21 20 20 23 25 27 29 30 32 32 33 33 32 33 34 36 40 41 43 45 46 47 48 48 48 50 51 52 53 53 53 53 53 54 55 55 55 54 53 51 49 47 45 44 42 41 40 40 39 38
2 2 2 3 4 4 4 5 6 9 6 3 4 4 5 5 5 5 3 3 3 2 3 2 4 5 6 8 12 7 8 14 13 10 10 20 30 32 31 33 34 33 32 31 31 28 29 30 32 33 33 34 35 36 39 43 44 45 47 48 49 50 51 52 53 53 55 55 55 55 56 57 57 56 54 51 49 48 46 45 44 43 42 41 40 40
3 3 4 5 3 3 5 5 6 10 5 4 4 4 5 5 4 4 4 3 2 3 5 3 4 3 6 6 8 4 5 11 14 14 16 24 34 36 37 40 40 38 36 33 32 29 26 25 27 31 32 34 34 34 37 38 40 42 45 47 48 50 51 52 53 54 55 56 56 56 56 58 58 57 54 52 50 49 48 47 46 45 44 43 43 42
1 3 5 6 4 5 5 2 5 8 3 3 5 4 4 5 4 3 4 2 2 2 8 7 7 4 5 5 6 3 6 10 11 11 15 23 33 37 39 43 44 44 42 39 35 32 27 22 20 23 27 30 31 33 35 36 38 39 42 44 47 49 50 51 53 54 55 55 56 57 57 58 58 57 55 53 52 51 50 49 48 48 47 46 45 44
2 1 1 3 4 4 4 2 1 2 2 4 5 3 4 4 4 3 2 3 3 3 8 6 9 6 4 5 3 5 4 7 9 10 14 21 29 33 36 40 42 44 46 46 44 40 34 26 18 16 19 23 26 29 32 35 36 38 40 41 44 46 48 50 51 53 54 55 56 57 57 58 58 57 56 55 55 54 53 52 51 50 49 48 47 46
3 1 2 2 3 5 6 4 3 3 3 4 3 3 2 3 3 4 4 3 1 5 6 3 4 5 4 4 5 7 5 8 10 11 13 17 23 29 34 37 40 42 46 49 50 49 46 39 30 23 18 17 19 22 26 30 33 35 38 40 42 44 45 48 50 52 53 54 56 57 57 58 58 57 57 57 57 56 55 54 53 51 50 50 48 48
4 4 2 1 2 4 5 3 3 4 4 3 2 3 2 4 3 3 3 0 3 6 3 1 2 2 3 1 5 8 9 11 10 12 14 16 21 28 33 37 40 43 47 49 51 53 53 51 45 38 30 23 17 16 19 23 28 32 35 37 40 41 43 45 48 50 52 53 55 56 57 58 58 58 58 58 58 57 56 55 54 53 52 51 50 50
5 3 2 2 1 3 5 3 0 2 2 3 3 3 3 1 1 4 4 2 5 5 3 1 2 2 2 2 3 5 8 11 13 16 18 20 23 26 31 36 40 45 47 48 48 50 52 52 50 47 41 34 26 19 15 15 19 25 30 34 37 39 40 43 46 48 51 52 54 55 56 57 58 58 59 59 58 57 57 56 55 54 53 52 51 50
3 5 1 1 1 2 4 3 3 3 3 4 3 4 4 3 3 4 4 4 6 5 4 2 1 3 3 4 3 2 6 13 17 19 21 23 26 27 32 38 42 45 46 46 46 47 48 49 50 49 47 44 38 30 21 15 14 16 21 26 32 35 37 40 43 45 47 50 51 53 55 56 56 57 58 58 58 57 57 57 56 55 54 53 51 50
2 6 4 2 1 5 4 2 4 4 1 2 2 3 2 3 4 2 4 5 2 3 4 2 3 3 4 8 5 4 7 14 20 22 23 24 27 30 33 36 39 40 42 43 43 44 45 48 49 49 48 47 45 40 34 26 19 15 14 17 23 29 33 36 39 42 44 46 48 50 52 53 54 55 56 57 57 57 57 57 57 56 55 53 52 50
2 6 3 1 1 3 3 1 1 1 1 1 2 2 4 4 4 1 4 1 2 2 4 1 3 3 2 4 3 12 13 16 19 21 23 24 26 29 30 32 34 36 38 40 40 41 44 47 49 49 48 46 45 44 41 37 30 23 17 15 15 19 24 29 34 38 41 43 45 47 49 50 52 53 55 56 56 57 57 57 57 57 56 54 53 51
1 6 4 2 0 2 1 2 4 3 3 3 2 5 3 1 2 2 1 3 2 4 4 1 4 5 1 3 9 17 17 18 17 17 20 23 25 25 25 28 31 33 36 38 40 42 43 46 48 48 47 45 44 43 41 39 36 30 25 20 17 16 16 20 25 31 35 38 41 44 46 47 49 51 52 54 55 55 56 57 57 57 56 55 54 52
2 3 6 1 2 3 1 1 4 4 1 3 2 3 1 1 3 2 0 2 2 5 5 3 5 4 2 2 9 14 14 14 14 14 15 19 23 24 25 28 30 32 35 37 40 42 42 44 46 47 47 45 43 42 40 38 36 33 30 26 22 19 16 15 18 22 27 31 35 39 41 44 46 48 50 51 52 54 55 57 57 57 57 56 54 53
1 1 5 2 3 2 3 2 1 4 2 1 1 3 1 3 4 2 1 2 2 6 6 5 6 4 2 0 6 8 9 10 12 12 12 15 22 25 27 31 34 35 37 38 39 40 39 40 43 45 45 45 43 42 41 39 38 36 33 31 28 25 20 17 15 16 19 23 27 32 35 38 41 43 45 48 50 52 54 55 56 56 56 55 54 53
0 2 4 4 2 3 3 1 4 3 2 1 1 2 2 1 1 1 1 1 1 5 5 5 6 4 1 2 2 5 6 6 8 9 9 15 22 25 26 28 31 33 34 36 36 36 35 37 40 43 43 44 43 43 43 42 41 39 36 34 32 30 27 24 20 17 16 16 20 24 28 32 35 37 40 43 46 48 50 52 53 54 54 54 53 52
1 2 3 5 6 6 5 4 5 5 3 2 2 2 2 2 1 3 4 1 0 2 2 3 7 4 1 2 1 3 5 6 8 8 9 16 22 25 27 27 28 30 32 34 35 33 33 35 39 41 43 43 44 44 45 44 43 42 40 38 36 33 31 29 26 23 20 17 17 19 22 26 29 31 35 38 41 44 46 48 50 51 52 52 52 51
2 2 2 6 7 7 7 5 3 3 3 4 2 0 1 2 3 1 5 3 3 2 2 1 6 4 1 1 1 2 5 7 10 10 10 16 20 23 27 27 26 28 30 33 35 33 33 36 39 42 43 44 44 46 46 45 44 44 43 41 39 36 34 31 29 27 24 21 18 18 20 22 24 25 29 32 36 39 42 44 46 47 49 50 50 49
1 2 1 5 6 6 5 4 2 1 4 4 3 3 2 1 1 4 5 2 3 6 3 3 6 3 2 2 1 2 6 7 9 11 12 15 18 21 26 27 27 28 29 32 34 32 33 38 41 43 45 45 45 46 47 46 46 45 45 44 41 39 37 34 32 29 27 25 23 21 20 21 21 23 25 28 31 34 36 39 42 44 46 47 47 47
1 0 1 4 6 7 6 6 4 3 3 2 1 2 2 2 2 2 2 1 1 4 2 4 7 2 3 3 1 2 4 5 8 13 16 16 17 20 24 27 27 27 28 32 34 33 35 39 41 42 43 43 44 46 46 47 47 47 47 45 42 41 39 37 36 33 31 29 27 25 22 21 20 22 23 25 28 30 32 35 37 40 42 43 44 44
2 2 0 1 4 6 6 5 5 5 5 1 2 2 3 4 3 2 1 0 3 2 4 2 6 3 2 3 3 5 6 8 11 18 22 20 19 21 25 29 30 27 28 32 33 33 36 39 41 42 42 42 44 46 46 46 48 49 48 44 42 42 41 40 38 36 34 33 31 29 26 24 22 21 22 24 27 29 30 32 34 36 37 39 41 42
1 1 3 6 6 6 6 7 6 5 7 8 3 2 1 3 2 2 1 1 3 2 3 4 4 5 6 4 6 8 10 11 13 20 25 24 22 23 27 32 32 27 26 29 32 33 37 40 41 43 43 44 46 47 46 47 50 50 46 44 44 44 44 42 39 37 37 36 35 33 30 28 25 23 23 23 25 27 30 31 32 33 34 36 37 39
2 2 4 5 6 6 5 8 9 6 7 8 5 1 1 1 3 4 2 3 2 1 4 3 3 6 10 5 4 7 9 9 12 18 25 26 24 26 31 35 33 27 25 27 30 33 37 39 40 41 42 44 47 48 48 51 53 50 45 45 47 48 47 45 41 39 38 37 37 36 34 31 29 27 25 24 24 25 28 30 31 33 33 34 36 37
3 4 3 2 5 6 6 10 11 8 4 2 2 2 1 1 3 5 3 5 3 3 6 6 5 9 10 5 4 5 8 10 13 19 23 24 25 29 34 36 33 27 24 26 30 34 37 37 37 38 40 43 45 47 50 54 54 50 48 50 52 51 49 46 43 41 39 38 37 37 36 35 33 31 29 27 25 25 26 28 30 32 33 34 35 36
3 3 3 2 6 7 7 10 9 4 2 1 2 3 3 2 2 4 2 4 5 7 10 11 11 11 6 3 4 7 11 14 16 20 21 21 25 32 36 35 29 23 23 28 34 37 38 37 36 38 40 41 43 46 51 54 52 50 51 54 54 52 49 46 44 42 40 39 38 36 35 35 34 33 32 30 27 26 25 27 29 31 33 35 35 36
2 2 3 3 5 8 6 5 4 2 4 4 3 3 4 4 3 2 1 3 4 7 9 9 10 9 2 4 9 14 18 19 18 19 19 20 26 32 33 28 22 21 26 33 38 39 38 36 36 38 40 41 43 46 49 50 50 50 53 54 54 52 49 46 44 42 41 39 38 36 34 33 33 34 33 32 30 27 26 26 28 31 33 35 36 37
2 2 3 5 4 7 2 3 5 3 2 3 2 4 6 4 3 2 2 4 6 8 9 9 7 5 3 8 13 16 19 19 17 17 20 23 28 30 25 22 22 24 28 34 38 39 36 34 36 39 41 42 45 47 47 47 48 51 54 54 53 50 48 45 44 42 41 40 37 35 33 32 32 32 33 33 31 28 26 27 29 31 34 35 36 36
1 1 2 3 3 5 2 4 7 3 3 4 2 3 4 4 4 4 4 7 9 7 7 7 4 4 8 12 14 16 17 16 15 18 22 28 32 27 19 20 28 31 34 37 38 36 32 31 35 40 41 43 45 46 45 45 46 50 52 51 50 48 46 45 43 41 40 39 37 35 32 31 30 30 31 31 30 28 27 28 30 32 34 35 35 36
2 2 1 1 1 5 6 7 7 4 3 4 1 3 4 4 5 7 8 11 11 7 5 5 5 10 13 13 15 18 18 17 18 20 24 29 30 24 21 26 32 35 37 36 33 31 33 36 39 41 41 42 43 44 44 45 46 49 49 48 47 46 45 43 42 41 40 38 36 34 32 31 30 29 29 28 27 27 28 29 31 32 33 35 36 36
3 3 2 1 2 4 5 6 5 5 4 5 4 5 5 2 4 9 10 8 7 7 5 5 9 13 16 19 21 24 27 29 26 25 27 27 21 20 26 32 34 34 33 32 31 33 37 40 42 42 41 41 43 44 45 46 47 47 46 46 46 45 43 41 41 40 39 38 36 34 32 32 30 29 28 26 25 25 27 29 30 32 33 35 36 37
3 2 1 1 1 2 3 3 2 4 3 4 1 7 7 3 5 11 10 6 4 3 6 8 11 14 20 26 29 30 34 35 29 26 26 20 13 17 28 33 33 33 32 33 35 38 39 41 41 40 39 41 42 42 43 45 46 44 44 45 46 45 42 40 39 39 38 37 36 34 33 32 31 30 28 26 25 25 26 28 29 31 33 34 36 37
5 2 1 1 1 1 0 1 3 2 1 2 1 4 5 4 5 7 8 7 2 3 5 11 14 19 24 30 33 35 33 28 21 17 14 12 14 24 30 32 34 35 34 35 37 38 40 41 40 38 39 42 41 40 42 45 43 42 42 44 45 44 41 38 37 37 37 37 36 35 33 32 31 30 28 26 25 26 26 27 28 29 32 34 36 36
5 2 2 2 1 1 1 3 4 3 3 0 1 3 5 8 9 6 6 5 1 3 16 20 17 22 27 31 36 34 23 15 9 5 5 14 26 32 33 34 36 36 36 37 38 40 42 41 40 39 40 41 41 39 42 43 41 39 42 44 45 43 39 37 36 36 36 36 35 34 32 30 28 28 26 25 24 25 25 26 27 29 30 33 35 35
5 3 3 2 2 1 1 2 2 2 4 3 2 6 9 12 10 5 4 3 2 15 29 25 19 24 28 33 37 27 12 6 7 9 17 29 35 35 34 37 39 39 39 39 39 41 43 41 41 40 39 40 41 40 41 42 40 40 42 44 42 39 36 35 35 35 36 36 34 33 30 28 25 24 22 22 22 23 24 26 27 28 29 31 33 34
5 4 3 1 3 1 1 1 2 3 4 3 5 8 11 13 10 7 5 5 9 24 32 26 23 28 31 36 34 18 4 5 13 24 36 40 38 38 38 39 42 42 42 42 42 42 42 41 40 40 39 39 40 40 40 41 40 40 41 41 39 37 35 34 34 34 35 34 33 30 28 25 23 20 19 19 20 21 23 25 26 27 27 28 30 31
2 2 2 1 2 1 1 2 3 4 3 1 6 10 13 14 9 4 6 12 19 27 31 28 30 32 33 34 30 16 11 18 27 37 43 42 40 42 43 43 45 45 44 45 44 42 40 40 40 39 38 38 38 39 39 40 40 40 39 38 37 36 34 33 33 33 33 33 32 29 25 22 19 17 17 18 19 20 22 23 24 25 25 26 27 28
1 1 2 1 1 1 2 2 3 4 1 6 13 13 12 11 6 5 12 22 26 28 29 30 33 33 32 33 31 28 30 36 38 40 41 41 42 45 46 47 47 47 47 47 45 41 39 40 41 40 37 36 36 38 38 39 39 38 37 38 38 36 34 32 32 31 30 31 30 28 25 21 18 16 16 17 18 19 20 21 23 23 24 24 25 25
2 1 2 2 1 0 1 1 3 4 0 12 18 11 8 7 10 15 21 26 28 29 30 30 31 32 33 34 35 37 39 40 40 39 41 43 45 45 47 48 47 48 49 48 44 40 38 39 41 39 37 35 35 36 37 38 38 36 36 38 37 35 33 32 31 30 29 28 28 26 23 20 17 16 16 17 17 18 19 20 20 21 21 22 22 22
2 2 1 2 1 2 0 1 0 1 6 17 17 9 10 17 21 24 24 25 28 32 31 29 31 33 34 35 37 39 39 38 39 41 43 45 47 47 48 48 46 46 46 44 42 40 39 40 39 38 36 36 35 34 36 37 36 35 36 37 36 34 33 32 30 29 27 26 26 24 21 18 16 15 15 16 16 16 16 17 18 18 19 19 19 20
0 2 2 2 1 1 4 4 4 9 15 21 21 19 23 26 25 25 25 26 30 32 32 31 33 35 35 35 36 38 38 38 40 43 44 46 47 48 48 45 42 41 41 42 42 40 39 39 38 37 36 34 33 34 35 34 34 35 36 35 34 33 32 31 30 28 27 25 24 23 19 16 14 13 13 13 14 14 14 14 15 15 16 16 17 17
1 1 1 1 3 4 2 4 13 16 19 24 27 27 28 27 26 26 27 28 32 34 35 35 35 37 38 37 36 37 38 39 41 43 45 46 46 46 44 41 39 40 42 42 41 38 39 39 38 35 32 31 33 35 35 32 32 34 34 33 32 32 31 30 29 27 26 24 23 21 18 14 13 12 11 11 11 11 11 11 11 12 13 14 15 16
3 6 4 3 6 6 4 8 14 18 23 27 27 27 29 30 31 30 28 29 34 37 38 38 38 39 39 38 38 38 38 38 40 43 44 45 44 44 42 41 43 44 42 38 36 38 40 38 33 30 30 33 36 35 33 32 33 33 32 31 31 31 30 29 28 27 25 23 21 20 18 14 12 11 10 9 9 9 9 10 11 12 13 14 15 16
5 8 7 5 7 7 8 12 19 26 30 28 25 27 32 35 37 36 33 33 36 38 40 41 40 39 39 40 39 38 36 36 38 41 43 44 44 44 43 43 44 43 38 35 36 38 37 33 31 31 34 36 36 34 32 32 33 32 30 30 30 30 29 29 28 26 24 22 20 19 18 15 13 11 10 10 10 9 10 10 11 13 14 14 15 16
8 8 7 7 8 7 8 15 24 25 22 23 29 34 36 37 40 40 37 37 39 41 42 42 41 41 41 40 38 35 34 35 37 40 43 45 45 44 42 41 42 40 37 38 38 37 35 33 34 35 36 37 37 34 31 32 33 32 29 29 29 29 29 29 27 25 24 21 19 18 18 16 14 13 12 11 11 11 11 12 13 14 14 15 15 16
9 8 8 7 6 6 9 19 25 17 11 21 34 39 39 41 40 37 36 38 40 41 42 42 43 44 42 39 36 33 33 36 39 42 44 45 43 41 40 41 42 41 39 39 38 36 35 34 35 36 38 38 36 32 31 33 33 29 27 28 28 28 28 28 27 26 23 20 18 17 17 16 16 14 14 14 13 13 14 14 14 15 15 15 15 15
9 9 10 8 7 10 17 28 31 24 20 29 38 41 43 43 39 35 36 39 40 41 42 42 42 43 42 38 33 29 32 37 41 44 45 42 38 38 42 44 42 39 38 39 39 38 37 36 37 38 37 34 31 29 31 32 30 27 27 27 27 27 27 27 26 25 23 20 18 17 16 16 16 15 15 15 15 15 16 16 16 16 15 15 15 15
Wind_Direction
73 263 235 231 230 219 219 203 199 200 173 187 203 224 248 259 271 263 255 288 36 281 268 243 257 271 275 278 281 279 263 249 255 259 260 261 262 262 260 260 259 259 263 264 260 256 253 250 247 243 241 238 235 233 232 231 232 233 234 234 234 234 233 230 231 231 231 231 230 230 230 231 233 234 234 234 237 239 240 242 243 244 247 247 246 245
83 235 241 232 228 214 207 185 150 129 146 172 204 249 268 239 265 277 271 309 5 207 270 313 295 279 274 276 282 282 263 249 254 253 257 261 263 264 262 261 262 263 267 266 260 257 253 249 247 243 239 237 236 234 233 233 233 233 233 233 234 234 232 231 232 233 232 233 234 234 233 234 236 236 235 236 238 240 240 241 242 243 245 246 246 245
353 247 252 233 182 129 104 125 135 144 153 158 166 249 280 238 277 298 304 336 35 191 269 351 323 284 281 281 280 278 259 256 260 255 258 262 263 265 263 263 265 266 268 267 264 260 255 251 247 243 240 238 237 237 237 237 236 234 232 232 232 232 232 233 234 234 234 235 237 238 238 239 240 239 239 240 242 242 241 242 242 243 244 245 246 245
261 252 256 192 138 124 95 112 128 129 163 187 170 207 262 243 295 284 297 336 235 206 270 327 317 284 287 293 280 269 250 257 267 263 262 261 260 265 267 268 268 268 270 269 267 264 259 255 248 245 242 239 238 237 237 238 237 235 233 232 232 232 232 233 234 235 235 235 237 238 238 240 241 241 241 239 239 240 240 241 241 242 244 245 246 246
246 240 159 115 128 145 152 156 149 172 249 236 203 213 245 244 216 236 290 331 292 303 284 295 312 283 291 315 293 275 246 263 273 271 269 265 263 267 269 270 268 268 272 273 273 271 265 260 254 250 246 242 240 238 238 238 238 237 236 235 233 232 232 233 234 235 235 235 234 234 234 234 235 236 236 234 234 236 237 239 240 242 243 244 246 247
263 240 146 128 110 143 166 212 191 183 237 292 230 216 231 241 234 245 311 350 343 335 284 61 332 282 317 322 293 302 322 294 284 264 271 276 276 272 270 275 281 282 283 282 280 278 273 268 263 257 251 247 244 243 242 242 241 240 239 238 235 233 233 233 234 234 234 234 234 233 232 231 231 232 233 234 236 237 239 240 242 242 243 244 245 246
265 175 126 145 155 154 183 245 226 174 173 302 249 208 215 220 208 229 269 346 293 273 260 97 137 273 316 302 284 308 326 302 299 270 277 305 323 328 323 325 330 329 322 311 300 290 281 276 271 265 259 253 250 250 248 244 242 241 241 240 237 235 234 234 234 234 233 234 235 236 236 235 235 236 237 239 241 242 244 244 244 244 244 244 245 245
172 96 60 113 136 159 200 251 225 159 144 250 238 142 141 153 167 193 186 205 239 285 287 161 161 261 289 280 283 315 317 300 310 321 338 360 6 10 8 6 4 1 356 347 336 323 305 290 281 276 272 265 261 257 251 246 244 243 243 242 240 238 236 235 235 235 234 234 235 237 237 237 237 239 242 244 245 244 245 245 245 246 245 245 245 245
153 167 197 156 133 196 211 235 198 161 160 242 205 122 119 132 150 157 141 213 290 14 295 237 148 247 271 272 286 315 334 322 331 347 4 9 11 14 12 11 11 10 11 7 1 354 338 317 298 288 282 275 270 264 257 253 251 248 245 243 241 239 238 237 237 236 236 236 237 238 238 237 237 239 242 244 245 245 245 245 246 246 246 245 246 245
230 182 195 159 164 218 218 243 190 176 200 203 139 95 67 70 76 87 116 152 38 12 265 243 164 209 284 279 288 6 24 342 335 355 11 12 13 15 13 13 14 15 17 17 14 9 1 348 324 304 291 283 276 270 265 260 256 251 248 245 243 242 240 239 238 237 238 238 238 238 238 238 238 239 240 241 242 243 244 246 246 247 246 246 246 245
289 118 177 175 194 190 140 85 137 163 150 125 110 66 38 38 49 45 74 103 53 277 263 247 175 184 278 280 326 42 34 337 349 5 9 12 16 17 17 16 15 16 18 20 21 19 13 7 355 334 312 297 286 277 270 265 260 256 252 249 246 245 243 241 239 239 239 239 239 239 239 240 240 240 240 240 241 242 243 244 245 247 247 246 246 246
313 162 230 238 183 130 100 63 43 59 76 100 80 55 23 340 20 22 358 58 99 249 269 300 165 173 237 274 4 35 33 13 20 13 4 8 13 15 17 18 17 17 19 22 24 23 21 18 14 7 353 328 303 287 278 271 266 261 257 253 250 248 246 244 243 241 240 240 240 240 240 242 242 242 243 243 244 245 245 246 246 247 246 246 246 245
289 221 258 358 154 145 120 65 31 24 39 81 76 60 41 324 346 336 312 122 220 244 263 326 149 188 212 173 8 14 28 23 23 21 13 11 12 14 16 16 17 19 20 22 23 23 23 23 22 19 14 4 344 316 293 278 271 266 262 258 255 254 251 249 247 245 244 243 242 242 243 243 244 244 245 246 247 248 248 248 248 248 247 247 246 245
320 314 8 54 271 200 160 135 342 308 65 138 166 121 132 173 300 274 273 279 273 270 279 282 141 250 236 120 24 10 31 24 21 25 23 20 18 17 16 16 18 19 20 21 21 21 21 22 24 25 24 20 13 357 330 301 283 273 267 263 261 260 258 253 251 249 247 247 247 246 246 246 246 246 247 247 248 249 250 250 250 250 250 250 250 249
312 312 309 179 253 176 179 172 161 156 144 175 171 136 156 171 189 246 253 257 279 289 297 312 147 215 208 146 126 65 35 26 24 22 23 24 21 19 18 17 18 17 18 18 18 19 18 18 20 23 25 26 23 17 6 345 318 294 280 271 266 264 262 258 256 253 252 252 252 250 249 249 248 249 249 249 249 250 250 251 251 251 252 252 253 253
275 271 256 292 226 159 181 202 140 120 126 206 133 115 197 195 179 233 229 215 266 311 294 272 220 221 146 140 124 70 29 21 20 15 18 19 17 19 18 17 16 15 16 16 16 16 15 16 17 19 21 23 24 24 21 13 359 338 313 291 278 272 268 264 262 260 259 258 256 254 252 251 250 250 249 249 250 250 251 252 252 253 253 254 254 254
314 280 262 29 318 160 157 212 170 168 222 146 129 211 226 181 151 233 269 266 63 280 270 249 251 297 101 156 19 18 13 11 10 8 11 10 12 17 16 13 12 13 13 14 14 14 13 14 14 14 15 17 18 20 21 21 17 8 353 332 310 293 281 274 270 267 265 262 260 259 257 255 253 252 251 251 251 251 251 251 252 252 253 254 255 255
203 284 293 107 295 271 176 280 286 247 182 135 188 250 256 163 117 111 263 322 15 248 273 314 255 289 310 251 351 8 3 1 0 358 1 2 7 12 10 9 9 10 11 11 12 12 12 12 11 10 10 10 12 13 14 16 17 15 10 358 344 328 312 298 285 277 272 268 266 264 262 260 258 256 255 254 252 252 251 251 251 252 253 254 255 255
142 291 309 88 179 292 357 340 301 287 211 151 215 286 12 225 280 346 277 276 272 267 286 287 268 273 195 269 351 0 352 350 350 351 357 358 1 1 360 2 3 6 8 8 10 10 9 9 8 7 6 4 4 5 7 8 9 11 11 6 360 349 336 320 305 293 284 278 274 271 269 266 264 261 260 258 256 254 252 253 253 254 254 255 255 255
114 204 287 256 185 289 9 61 301 309 331 64 342 331 28 185 229 249 219 222 249 276 282 274 279 280 187 296 355 343 336 342 343 350 356 353 355 354 354 357 358 1 4 4 6 7 7 6 5 5 4 2 1 360 359 1 2 3 4 3 3 359 350 339 326 312 300 291 285 280 276 273 270 267 265 263 260 258 257 256 256 256 256 256 256 255
34 177 259 289 288 303 323 201 192 226 280 319 317 298 296 268 282 295 254 187 232 273 281 280 275 267 179 99 22 328 320 328 336 347 349 347 352 353 351 353 354 356 359 1 2 2 3 2 1 2 1 359 357 355 354 355 355 356 356 356 356 356 354 351 344 334 322 311 300 291 285 281 277 274 271 268 265 263 261 260 259 258 258 257 257 256
245 191 243 292 304 299 288 242 201 205 219 186 174 218 238 211 324 309 283 281 34 247 227 274 281 266 158 126 89 332 314 315 325 335 344 345 350 352 350 349 350 352 354 356 358 358 358 358 358 358 358 356 354 352 351 351 350 350 351 351 351 349 349 350 348 343 335 326 317 308 299 291 285 281 277 273 270 268 266 264 263 261 260 259 258 257
173 172 252 277 279 280 284 287 264 208 146 115 115 69 94 124 111 216 257 290 325 273 181 216 273 262 201 194 136 336 312 318 325 329 339 343 346 349 349 346 345 346 349 351 353 354 353 353 354 354 354 353 352 350 348 347 347 347 347 347 347 346 344 343 343 342 338 331 324 320 314 306 298 291 285 280 276 273 270 268 267 264 262 261 259 258
111 145 299 291 285 289 301 320 341 100 92 71 29 32 58 47 123 188 227 272 280 272 274 263 267 256 191 225 206 341 324 327 336 338 335 334 340 347 348 346 342 341 344 348 351 350 348 349 351 351 351 350 349 348 346 344 344 343 343 343 343 343 342 339 336 333 332 330 326 323 320 316 313 306 297 290 284 279 276 272 270 267 265 263 261 259
335 214 7 328 312 317 330 340 340 348 14 39 54 37 46 27 7 263 267 42 233 277 308 261 271 282 160 207 258 355 337 334 345 348 341 333 336 342 346 345 340 337 339 344 348 347 346 348 349 349 349 349 349 348 345 343 342 341 341 340 339 338 337 336 334 329 324 322 320 320 319 318 317 313 307 301 295 288 283 277 273 270 267 265 262 259
249 235 258 257 276 287 297 301 301 317 327 336 113 53 9 10 2 295 308 19 232 312 12 258 269 305 187 229 323 346 351 348 347 350 347 339 335 337 343 344 339 334 336 341 345 345 344 345 346 346 346 346 347 347 345 343 341 339 338 338 338 336 333 332 332 329 324 319 315 313 314 316 315 312 308 304 300 295 289 283 278 274 270 267 264 261
152 242 233 213 226 244 251 263 281 312 305 296 315 46 6 327 347 106 112 240 225 309 328 234 230 293 289 295 343 351 355 350 343 346 344 337 335 337 339 339 335 330 330 337 343 344 343 343 342 342 342 341 342 343 343 341 339 338 337 335 335 335 333 331 329 327 325 322 317 312 310 310 310 307 304 301 299 296 291 286 281 277 273 269 265 262
84 309 262 228 240 247 259 278 285 291 284 286 302 1 148 314 28 83 148 234 216 305 285 236 198 283 292 314 13 357 350 346 341 342 338 333 334 336 334 333 331 327 327 335 342 342 341 340 339 338 338 337 338 338 338 337 337 336 334 332 332 332 332 331 327 325 324 322 320 315 311 308 305 302 299 297 295 291 288 286 283 279 275 270 265 262
124 263 262 241 272 267 268 277 277 278 276 275 297 303 299 176 136 124 183 235 224 233 269 289 292 281 290 326 24 3 349 343 338 335 331 331 333 332 329 328 326 326 330 336 339 338 337 336 335 335 334 334 335 334 334 334 334 334 331 329 329 329 329 329 327 324 323 320 319 316 313 308 303 300 298 295 292 288 286 284 282 279 275 269 265 261
121 256 277 294 295 284 259 265 279 290 274 271 297 303 315 271 194 142 183 247 238 240 263 285 291 285 290 340 359 351 346 338 333 331 328 330 332 329 325 323 323 328 335 337 335 334 334 333 333 333 332 333 333 332 332 332 331 330 328 327 327 327 327 328 325 324 322 319 317 315 311 307 302 299 297 294 292 289 285 282 279 277 274 269 264 260
83 291 331 35 323 293 261 271 303 231 216 244 286 327 344 342 351 36 6 310 285 273 275 282 288 287 305 18 349 342 341 334 329 327 323 324 327 324 321 321 327 333 334 334 333 332 332 331 331 331 331 331 332 332 331 330 328 326 326 326 326 325 325 326 324 323 321 318 316 314 310 306 301 297 295 294 293 291 287 282 278 275 271 267 262 257
53 313 345 44 345 287 257 359 316 261 213 258 294 357 356 349 344 350 353 326 308 302 303 301 294 291 339 356 341 332 329 323 319 321 321 321 323 322 321 326 333 334 331 329 330 331 331 329 329 331 330 328 328 329 329 328 326 325 325 325 324 324 324 324 323 322 320 318 317 315 312 307 301 295 293 293 292 292 290 284 278 273 269 264 259 256
99 23 332 22 328 274 275 345 320 337 10 298 285 17 346 310 317 333 336 317 308 312 314 301 299 332 340 336 327 319 316 313 315 322 322 319 319 318 322 330 331 328 325 324 328 331 330 328 328 329 326 324 325 326 326 325 323 322 322 322 322 322 322 322 322 321 320 319 318 316 314 309 302 295 291 291 291 292 290 284 278 273 269 265 259 254
118 84 289 192 255 276 299 335 338 347 321 263 167 58 342 332 1 340 315 305 303 298 277 274 324 343 333 323 316 312 309 307 308 312 313 312 310 312 321 326 324 321 320 321 324 326 326 326 326 325 322 321 322 323 323 323 321 320 319 321 322 322 321 321 321 322 321 320 318 317 314 310 304 297 292 290 289 289 288 284 279 274 269 265 259 254
57 24 305 163 169 272 317 6 348 307 255 200 140 54 12 12 9 332 307 282 285 305 312 323 338 334 323 316 313 309 305 303 302 304 308 306 300 307 319 320 319 318 317 317 317 316 318 321 323 324 322 320 320 320 321 321 321 319 318 321 323 323 321 321 321 322 322 321 318 316 313 309 304 299 294 292 290 288 287 284 279 273 268 263 259 255
62 12 308 160 197 273 354 32 297 265 210 179 122 23 20 14 344 339 324 287 269 350 8 345 327 322 320 317 313 308 303 300 297 300 303 295 288 311 318 317 317 317 314 313 313 313 314 317 320 322 321 319 319 319 320 322 321 318 317 320 323 323 322 321 321 322 322 321 319 317 313 309 304 299 295 294 291 289 286 283 278 273 267 262 258 254
97 91 77 93 229 218 145 247 264 309 30 106 25 357 358 335 321 322 315 304 241 128 12 341 326 323 323 318 313 309 304 298 296 300 296 283 300 318 317 314 315 313 311 311 311 312 314 316 317 317 318 320 319 318 321 324 321 317 315 319 322 323 321 320 321 323 323 322 320 316 312 308 304 299 297 295 292 290 287 283 278 273 267 261 256 253
88 118 157 175 263 84 81 303 326 340 316 300 11 326 319 308 291 270 291 306 155 4 341 338 329 322 321 318 315 313 309 299 291 295 299 303 312 316 314 313 314 312 310 309 309 310 313 314 315 314 316 319 318 317 323 325 321 315 314 318 321 321 319 319 321 323 324 323 320 316 311 308 303 299 297 296 294 292 289 284 278 272 267 261 257 254
41 29 114 143 294 31 74 290 287 258 252 219 235 295 318 319 312 316 314 292 13 343 334 330 321 318 319 317 314 313 308 296 293 306 315 313 313 313 312 313 314 312 309 308 307 307 310 312 313 311 313 317 316 317 322 324 320 315 314 317 319 317 317 319 321 322 323 323 320 314 310 307 303 300 299 299 298 296 290 283 277 272 267 262 257 254
14 6 62 89 278 277 141 220 243 254 243 206 241 292 333 342 343 353 323 305 340 334 326 321 317 317 317 312 309 303 264 278 300 307 313 314 312 312 312 312 312 312 310 309 307 305 306 309 310 309 310 314 314 315 320 322 318 315 316 318 318 317 318 319 319 319 321 321 320 314 307 305 304 303 306 307 304 298 290 282 276 270 266 262 257 254
356 352 48 124 227 268 214 226 273 272 229 252 313 333 355 350 341 350 316 312 321 320 318 318 317 315 314 309 305 300 286 291 298 303 309 312 311 311 312 312 312 312 310 310 308 304 304 306 308 307 307 310 312 314 319 320 318 317 318 319 319 319 319 318 317 317 318 320 319 314 308 305 305 308 313 313 307 298 289 282 276 270 267 263 258 254
38 344 354 88 185 295 188 189 300 286 193 17 351 352 10 1 332 313 309 308 311 313 314 317 314 312 313 310 307 305 302 301 303 305 308 311 310 310 311 312 313 313 312 312 309 304 303 306 307 305 304 307 310 314 318 320 319 318 318 318 319 320 319 317 317 317 316 318 319 315 311 310 311 317 320 316 308 299 290 282 276 270 266 261 257 253
163 167 322 290 233 332 79 47 331 260 242 16 3 358 17 357 311 306 309 307 310 313 313 313 312 311 311 308 305 306 307 308 309 309 310 311 310 310 312 312 312 313 313 312 308 306 307 307 305 304 304 306 310 314 318 321 320 319 318 317 319 320 318 317 318 317 316 317 317 315 314 314 316 321 322 316 308 299 290 283 276 270 265 260 255 251
168 137 293 266 182 95 175 247 296 259 344 0 359 337 320 317 308 309 313 311 312 314 313 311 309 308 308 306 305 308 310 311 311 311 312 313 313 312 312 310 310 311 312 311 309 310 311 308 305 304 304 305 309 315 319 321 320 318 317 316 318 319 317 317 318 317 316 317 316 315 315 318 321 322 320 315 306 297 291 284 277 271 265 260 255 250
171 150 188 206 225 220 206 225 326 344 341 341 335 319 313 312 309 311 313 310 310 311 310 308 305 305 306 306 307 308 308 308 310 312 313 314 314 314 312 311 312 314 315 313 312 312 313 311 308 305 302 304 312 318 321 321 320 318 316 316 318 318 316 317 318 317 316 316 315 313 313 319 325 325 321 316 306 296 291 284 278 273 267 262 257 254
350 6 131 100 313 284 251 338 334 332 331 326 322 318 315 311 310 310 310 309 309 309 308 305 301 301 301 302 303 304 304 306 309 311 313 315 316 317 316 316 318 319 317 314 312 313 315 313 307 302 302 310 319 321 321 320 319 318 316 316 316 316 316 316 318 317 317 315 314 312 309 312 322 326 323 318 308 299 292 284 278 273 268 264 262 260
24 27 24 14 339 319 322 333 328 325 323 320 317 317 317 314 311 308 306 308 309 309 307 304 301 299 298 297 299 300 301 306 309 311 314 316 317 318 318 318 320 321 318 314 316 319 318 311 303 304 312 319 323 323 320 319 319 318 316 315 316 316 315 316 318 318 317 315 313 311 306 303 308 315 316 312 304 295 288 281 276 271 268 267 267 266
354 16 13 353 335 313 286 297 314 317 316 318 319 319 319 317 312 309 309 311 312 310 307 304 301 299 295 294 296 297 300 305 309 311 313 315 316 316 317 318 321 322 319 318 321 323 319 310 306 312 318 320 323 324 321 319 320 318 315 315 316 316 315 317 318 318 317 315 312 309 305 300 297 298 299 296 291 285 279 275 271 269 267 267 266 265
333 347 345 320 311 301 290 311 322 319 314 320 324 321 320 317 313 311 313 315 314 313 310 306 304 300 297 295 297 299 302 307 311 313 313 314 315 315 316 319 322 321 320 321 322 321 317 312 311 314 316 319 322 323 320 319 319 317 315 316 317 316 317 318 318 317 317 316 312 307 303 298 292 288 286 283 281 279 276 273 271 270 268 265 263 261
350 342 333 322 321 323 318 321 323 320 309 317 321 321 321 318 314 312 314 316 316 314 312 309 307 304 303 302 302 303 307 311 313 314 314 314 314 316 318 320 320 318 319 321 322 320 317 313 312 313 314 317 320 320 318 318 317 316 316 317 316 317 318 318 317 317 316 315 313 307 301 296 291 287 282 278 276 274 273 272 272 271 269 267 264 261
346 331 326 323 315 313 316 318 319 315 309 313 318 321 321 319 316 316 317 316 316 315 314 311 309 308 308 307 306 309 313 314 315 315 315 314 314 317 319 319 317 318 320 323 323 320 315 312 311 312 314 317 320 320 318 317 316 316 317 317 317 318 319 318 317 315 315 315 313 308 302 296 291 287 283 280 277 275 274 272 272 271 271 269 265 260
Height
1514 1514 1513 1510 1507 1507 1509 1510 1510 1510 1513 1513 1513 1513 1513 1513 1507 1502 1503 1504 1506 1502 1496 1497 1496 1487 1476 1468 1464 1466 1470 1468 1464 1462 1459 1456 1455 1454 1454 1452 1451 1450 1447 1449 1453 1454 1456 1458 1460 1462 1464 1465 1467 1468 1470 1472 1473 1476 1478 1481 1483 1486 1488 1490 1492 1495 1496 1498 1500 1501 1502 1504 1506 1508 1510 1512 1514 1515 1516 1518 1519 1521 1522 1523 1524 1525
1514 1513 1508 1505 1506 1508 1510 1512 1512 1513 1514 1513 1513 1513 1513 1515 1507 1500 1503 1505 1506 1503 1496 1497 1495 1483 1473 1467 1461 1462 1466 1463 1459 1458 1455 1452 1451 1450 1449 1448 1445 1444 1443 1445 1447 1448 1451 1452 1455 1457 1458 1460 1461 1462 1465 1466 1468 1470 1472 1475 1477 1481 1483 1484 1487 1489 1491 1493 1495 1497 1498 1501 1503 1504 1505 1507 1509 1511 1513 1515 1516 1517 1519 1520 1521 1522
1515 1509 1503 1504 1509 1510 1512 1513 1512 1512 1513 1513 1515 1514 1512 1512 1507 1500 1503 1505 1506 1503 1496 1496 1494 1478 1466 1463 1458 1457 1459 1455 1452 1453 1451 1448 1448 1446 1444 1442 1441 1440 1440 1441 1441 1443 1445 1447 1450 1452 1453 1454 1455 1458 1460 1461 1463 1465 1467 1469 1472 1475 1477 1479 1482 1484 1486 1489 1491 1494 1496 1498 1500 1500 1502 1504 1506 1508 1510 1511 1513 1514 1515 1516 1518 1519
1511 1504 1504 1507 1509 1508 1510 1513 1512 1511 1513 1512 1513 1513 1507 1508 1507 1500 1499 1504 1504 1502 1496 1497 1497 1480 1463 1459 1453 1451 1453 1450 1448 1449 1446 1446 1444 1441 1440 1439 1439 1438 1436 1437 1438 1440 1442 1443 1446 1447 1448 1449 1452 1454 1455 1456 1458 1460 1462 1464 1467 1470 1472 1475 1478 1480 1483 1486 1489 1491 1493 1495 1496 1497 1499 1501 1502 1504 1506 1508 1509 1510 1512 1513 1514 1516
1505 1503 1507 1509 1508 1508 1508 1510 1512 1510 1510 1510 1511 1509 1504 1503 1505 1501 1501 1504 1500 1500 1501 1498 1493 1476 1461 1456 1448 1445 1450 1447 1446 1446 1442 1442 1441 1438 1438 1437 1436 1436 1435 1436 1437 1439 1440 1441 1442 1442 1444 1446 1447 1448 1450 1452 1453 1455 1457 1459 1462 1465 1468 1471 1473 1477 1480 1483 1485 1487 1488 1490 1491 1492 1494 1495 1496 1499 1501 1503 1504 1506 1508 1510 1511 1512
1503 1504 1507 1507 1508 1508 1506 1507 1509 1508 1508 1507 1504 1502 1500 1499 1503 1503 1504 1504 1497 1494 1497 1497 1488 1468 1456 1458 1449 1445 1448 1444 1443 1444 1440 1437 1437 1438 1437 1436 1438 1439 1440 1439 1438 1439 1439 1439 1440 1441 1442 1443 1443 1444 1446 1448 1450 1452 1454 1456 1458 1461 1463 1466 1468 1472 1475 1477 1479 1481 1482 1483 1484 1485 1486 1488 1490 1493 1495 1497 1499 1502 1504 1506 1507 1509
1504 1506 1507 1506 1506 1507 1507 1506 1506 1507 1508 1505 1500 1500 1501 1501 1503 1504 1503 1502 1494 1490 1494 1499 1494 1476 1463 1459 1450 1448 1450 1443 1440 1440 1439 1441 1443 1445 1446 1446 1447 1446 1445 1443 1441 1441 1440 1440 1439 1439 1439 1439 1439 1441 1443 1446 1448 1450 1451 1453 1455 1456 1458 1461 1464 1467 1470 1471 1473 1474 1476 1477 1478 1479 1480 1483 1486 1489 1491 1493 1495 1497 1499 1501 1503 1505
1502 1505 1506 1506 1506 1507 1507 1503 1502 1505 1505 1501 1501 1503 1503 1502 1503 1502 1501 1500 1497 1497 1497 1498 1499 1492 1477 1462 1452 1454 1452 1441 1438 1439 1443 1450 1452 1453 1453 1452 1451 1449 1446 1443 1440 1440 1441 1441 1440 1439 1439 1439 1439 1440 1442 1444 1445 1447 1448 1450 1452 1453 1455 1457 1460 1463 1464 1466 1467 1469 1471 1472 1473 1474 1476 1480 1483 1485 1487 1489 1491 1493 1495 1497 1498 1500
1501 1502 1503 1504 1505 1505 1502 1499 1501 1502 1499 1499 1504 1506 1503 1503 1503 1502 1503 1502 1505 1506 1494 1491 1500 1493 1476 1463 1454 1452 1451 1447 1448 1451 1455 1458 1457 1455 1454 1452 1451 1450 1448 1445 1441 1440 1439 1439 1439 1439 1439 1440 1440 1441 1441 1442 1443 1445 1446 1448 1449 1450 1452 1454 1457 1459 1460 1461 1463 1464 1466 1467 1468 1471 1474 1477 1479 1481 1482 1484 1486 1488 1490 1492 1494 1496
1500 1501 1501 1502 1501 1499 1498 1500 1502 1500 1498 1500 1506 1506 1505 1507 1506 1507 1506 1503 1508 1506 1485 1482 1491 1481 1467 1458 1448 1450 1462 1468 1465 1465 1468 1468 1464 1461 1457 1455 1453 1450 1448 1446 1443 1441 1438 1437 1437 1437 1438 1439 1440 1441 1441 1441 1442 1443 1444 1445 1446 1447 1449 1451 1453 1455 1456 1458 1460 1461 1462 1463 1465 1468 1471 1473 1475 1476 1478 1480 1482 1483 1485 1487 1489 1491
1500 1502 1502 1501 1497 1495 1498 1503 1504 1503 1502 1503 1505 1503 1503 1508 1509 1511 1511 1508 1505 1492 1475 1478 1484 1478 1470 1458 1455 1469 1486 1487 1477 1472 1474 1472 1470 1467 1464 1461 1458 1455 1451 1448 1444 1441 1439 1437 1435 1434 1435 1437 1439 1440 1441 1441 1441 1442 1442 1443 1443 1445 1447 1448 1450 1452 1453 1455 1456 1457 1458 1460 1462 1465 1467 1468 1469 1471 1473 1475 1476 1479 1481 1483 1484 1486
1500 1500 1499 1497 1495 1497 1499 1501 1504 1506 1506 1505 1503 1500 1497 1499 1503 1506 1508 1509 1497 1474 1472 1489 1490 1483 1475 1469 1478 1492 1494 1490 1485 1482 1479 1476 1474 1472 1469 1466 1463 1460 1455 1449 1445 1441 1439 1436 1434 1433 1434 1435 1437 1438 1440 1441 1441 1442 1442 1443 1443 1444 1445 1446 1447 1448 1450 1452 1453 1454 1456 1457 1459 1461 1462 1463 1464 1466 1468 1470 1472 1474 1476 1478 1480 1482
1491 1493 1497 1495 1495 1498 1497 1498 1504 1506 1507 1505 1503 1502 1499 1496 1495 1491 1491 1497 1488 1471 1481 1496 1488 1478 1476 1481 1493 1496 1491 1490 1489 1487 1484 1481 1479 1475 1471 1468 1465 1461 1456 1451 1448 1445 1443 1439 1437 1437 1435 1435 1435 1436 1438 1439 1441 1441 1442 1442 1442 1443 1444 1444 1445 1445 1447 1448 1449 1451 1452 1453 1456 1457 1458 1459 1460 1462 1463 1465 1467 1469 1471 1472 1474 1476
1486 1488 1496 1495 1493 1497 1496 1494 1496 1499 1504 1506 1503 1500 1497 1493 1490 1481 1479 1487 1481 1472 1485 1495 1486 1475 1472 1484 1496 1493 1491 1493 1489 1488 1486 1483 1481 1477 1474 1471 1466 1462 1458 1455 1453 1450 1449 1446 1445 1443 1440 1438 1436 1436 1436 1437 1438 1440 1440 1441 1441 1441 1443 1444 1444 1444 1444 1445 1446 1448 1448 1450 1452 1453 1454 1455 1456 1457 1459 1460 1462 1463 1465 1467 1469 1471
1494 1485 1490 1493 1491 1495 1497 1495 1495 1496 1502 1505 1502 1501 1496 1489 1487 1480 1474 1474 1468 1468 1482 1490 1481 1464 1459 1477 1494 1492 1491 1491 1488 1488 1485 1483 1482 1478 1474 1471 1466 1463 1461 1459 1457 1455 1454 1452 1450 1447 1443 1441 1439 1438 1437 1436 1436 1437 1438 1440 1440 1441 1442 1442 1443 1443 1443 1443 1444 1445 1446 1447 1448 1449 1450 1451 1451 1453 1454 1456 1457 1458 1460 1461 1463 1466
1501 1487 1490 1496 1494 1496 1496 1496 1499 1496 1496 1502 1505 1502 1497 1491 1488 1484 1478 1478 1480 1479 1479 1478 1469 1461 1466 1481 1489 1488 1488 1487 1486 1485 1482 1482 1480 1476 1474 1472 1469 1468 1465 1463 1461 1459 1457 1455 1453 1450 1446 1444 1443 1441 1439 1438 1437 1436 1436 1437 1438 1439 1440 1440 1441 1441 1441 1441 1442 1442 1443 1444 1445 1445 1446 1447 1448 1449 1450 1451 1452 1453 1455 1457 1459 1461
1501 1489 1490 1496 1495 1496 1497 1495 1499 1495 1491 1499 1503 1494 1492 1493 1490 1487 1485 1489 1494 1487 1477 1469 1461 1462 1472 1479 1481 1481 1481 1481 1481 1481 1480 1480 1478 1476 1475 1474 1473 1471 1469 1467 1465 1462 1459 1456 1453 1451 1448 1446 1445 1443 1442 1440 1439 1438 1436 1435 1435 1436 1437 1438 1439 1438 1439 1439 1439 1439 1439 1440 1441 1442 1442 1443 1444 1445 1446 1447 1448 1449 1451 1452 1454 1457
1508 1495 1488 1492 1493 1494 1498 1496 1496 1496 1493 1495 1495 1490 1491 1494 1491 1490 1490 1489 1490 1484 1474 1467 1460 1461 1464 1466 1477 1485 1482 1483 1483 1481 1481 1479 1477 1477 1476 1476 1475 1473 1471 1469 1467 1464 1460 1456 1454 1452 1450 1448 1447 1445 1443 1442 1440 1439 1437 1436 1434 1434 1433 1434 1435 1435 1436 1436 1435 1435 1436 1436 1437 1438 1438 1439 1441 1442 1443 1443 1444 1445 1446 1448 1450 1452
1514 1502 1489 1493 1496 1494 1497 1497 1492 1493 1495 1493 1492 1492 1492 1491 1488 1490 1492 1488 1486 1481 1472 1464 1459 1469 1479 1480 1490 1496 1491 1492 1490 1485 1484 1481 1478 1478 1476 1475 1474 1471 1470 1467 1465 1462 1459 1457 1455 1454 1452 1450 1448 1446 1445 1443 1441 1439 1438 1436 1436 1434 1433 1432 1431 1432 1432 1432 1432 1432 1432 1433 1433 1434 1435 1436 1437 1438 1438 1439 1440 1441 1442 1444 1446 1447
1513 1508 1495 1492 1498 1496 1494 1495 1489 1489 1494 1494 1496 1496 1495 1495 1492 1491 1491 1489 1487 1483 1478 1470 1458 1469 1494 1501 1500 1501 1498 1496 1493 1489 1488 1484 1482 1480 1477 1475 1472 1469 1468 1465 1463 1462 1460 1460 1458 1457 1455 1452 1450 1448 1446 1445 1443 1441 1440 1438 1437 1436 1434 1432 1430 1429 1428 1428 1428 1428 1428 1429 1429 1430 1431 1431 1433 1433 1433 1434 1435 1437 1438 1439 1441 1443
1511 1511 1501 1491 1494 1494 1490 1491 1489 1487 1489 1491 1494 1495 1494 1494 1492 1492 1492 1488 1488 1484 1482 1480 1468 1471 1497 1504 1499 1501 1500 1496 1495 1492 1490 1488 1485 1483 1480 1478 1475 1472 1470 1468 1466 1465 1463 1462 1460 1458 1457 1454 1452 1450 1447 1446 1444 1443 1441 1439 1437 1436 1434 1432 1429 1427 1425 1423 1424 1424 1425 1425 1425 1426 1426 1427 1428 1428 1428 1430 1431 1432 1433 1435 1436 1438
1510 1510 1506 1497 1494 1491 1487 1489 1490 1488 1488 1488 1490 1492 1493 1494 1493 1495 1495 1489 1490 1488 1484 1486 1478 1477 1496 1501 1498 1501 1499 1496 1496 1493 1491 1489 1486 1484 1482 1480 1477 1474 1473 1470 1468 1467 1464 1463 1460 1458 1457 1454 1452 1449 1447 1446 1444 1442 1441 1439 1438 1436 1433 1431 1427 1425 1423 1421 1420 1421 1421 1422 1421 1421 1421 1422 1422 1423 1424 1425 1426 1427 1428 1429 1431 1433
1512 1511 1509 1502 1496 1490 1488 1491 1491 1490 1490 1490 1493 1495 1495 1496 1496 1498 1497 1492 1494 1491 1489 1492 1484 1483 1498 1501 1497 1499 1497 1496 1496 1492 1491 1489 1486 1485 1482 1480 1478 1476 1474 1472 1469 1468 1465 1463 1460 1458 1455 1453 1451 1449 1447 1445 1444 1442 1441 1439 1437 1434 1431 1429 1426 1424 1422 1420 1419 1418 1418 1418 1417 1417 1417 1417 1418 1418 1419 1420 1421 1422 1423 1424 1426 1427
1512 1511 1510 1505 1496 1490 1488 1491 1491 1491 1490 1489 1495 1501 1500 1499 1500 1501 1498 1496 1497 1492 1490 1493 1484 1483 1498 1500 1496 1498 1497 1495 1494 1492 1491 1488 1485 1484 1482 1480 1478 1475 1474 1472 1469 1468 1465 1462 1460 1456 1454 1451 1449 1448 1446 1444 1442 1441 1439 1437 1434 1431 1428 1426 1424 1422 1420 1419 1418 1417 1415 1414 1412 1412 1412 1413 1414 1414 1415 1416 1416 1417 1418 1419 1420 1422
1512 1509 1510 1511 1507 1498 1492 1490 1490 1490 1491 1492 1498 1506 1505 1503 1503 1502 1499 1501 1500 1492 1491 1492 1481 1480 1495 1498 1495 1497 1495 1494 1494 1492 1490 1488 1485 1484 1482 1480 1478 1475 1474 1471 1468 1467 1464 1461 1459 1456 1454 1451 1449 1447 1444 1442 1440 1438 1436 1434 1432 1429 1427 1424 1422 1420 1418 1417 1416 1414 1413 1410 1408 1408 1408 1409 1409 1410 1411 1411 1412 1412 1413 1414 1415 1417
1514 1510 1510 1513 1516 1514 1506 1499 1495 1494 1495 1496 1502 1507 1507 1505 1505 1503 1501 1502 1500 1496 1498 1495 1485 1484 1494 1496 1493 1494 1493 1492 1491 1489 1489 1487 1485 1483 1481 1480 1478 1475 1472 1470 1468 1465 1462 1460 1458 1455 1453 1451 1448 1446 1443 1441 1439 1437 1435 1434 1431 1429 1426 1423 1421 1419 1417 1416 1414 1412 1410 1408 1406 1405 1405 1405 1405 1406 1406 1407 1408 1408 1409 1410 1411 1412
1514 1512 1509 1507 1510 1512 1509 1503 1500 1500 1499 1496 1499 1507 1510 1509 1509 1507 1504 1503 1504 1507 1506 1499 1495 1495 1493 1492 1494 1494 1493 1491 1490 1488 1487 1486 1484 1482 1480 1479 1477 1475 1472 1470 1467 1465 1462 1460 1457 1454 1452 1449 1447 1445 1442 1440 1438 1436 1433 1431 1430 1428 1426 1423 1421 1418 1416 1413 1410 1408 1406 1405 1405 1403 1402 1402 1402 1402 1402 1403 1403 1404 1405 1406 1407 1408
1514 1511 1508 1507 1506 1506 1506 1504 1501 1502 1502 1498 1499 1508 1513 1513 1511 1508 1507 1506 1509 1512 1503 1495 1500 1500 1491 1490 1496 1496 1495 1494 1492 1490 1488 1486 1484 1482 1479 1477 1475 1473 1470 1468 1466 1464 1461 1459 1456 1454 1451 1448 1445 1443 1440 1437 1435 1433 1431 1428 1426 1425 1422 1420 1417 1414 1412 1409 1406 1404 1403 1403 1402 1401 1400 1399 1399 1398 1398 1399 1399 1400 1401 1402 1403 1404
1515 1512 1511 1511 1508 1506 1507 1505 1501 1502 1504 1504 1505 1508 1511 1514 1512 1510 1510 1510 1511 1511 1502 1494 1499 1499 1492 1493 1497 1497 1497 1496 1494 1493 1491 1488 1485 1483 1480 1476 1473 1471 1469 1467 1465 1463 1461 1458 1456 1453 1450 1448 1445 1441 1438 1435 1432 1429 1427 1424 1422 1419 1417 1415 1411 1409 1407 1405 1403 1402 1400 1399 1398 1398 1397 1396 1395 1395 1395 1395 1395 1396 1397 1398 1399 1400
1515 1512 1513 1513 1510 1508 1507 1504 1502 1503 1505 1506 1509 1511 1511 1511 1509 1509 1511 1510 1510 1509 1503 1500 1500 1498 1495 1496 1497 1497 1497 1496 1495 1494 1491 1488 1486 1483 1479 1476 1473 1471 1469 1467 1465 1462 1460 1457 1454 1452 1449 1447 1444 1441 1437 1433 1430 1428 1424 1421 1419 1416 1414 1412 1408 1406 1403 1401 1400 1399 1397 1396 1394 1393 1393 1392 1392 1391 1391 1391 1391 1392 1393 1394 1395 1396
1515 1514 1515 1515 1512 1507 1503 1502 1503 1504 1503 1504 1507 1511 1511 1510 1509 1510 1511 1511 1510 1508 1504 1503 1503 1499 1497 1497 1497 1496 1495 1494 1494 1492 1489 1488 1486 1483 1479 1476 1474 1471 1469 1467 1465 1462 1459 1456 1453 1450 1448 1445 1442 1440 1437 1433 1430 1426 1423 1420 1417 1414 1412 1410 1406 1403 1400 1398 1397 1395 1394 1392 1390 1389 1388 1387 1387 1387 1387 1387 1387 1388 1389 1389 1391 1392
1517 1518 1517 1518 1515 1506 1502 1503 1503 1504 1506 1506 1509 1513 1512 1512 1511 1511 1512 1512 1512 1510 1506 1504 1503 1500 1499 1498 1497 1496 1494 1493 1491 1489 1487 1485 1483 1482 1478 1475 1473 1471 1469 1466 1463 1460 1457 1454 1452 1450 1447 1444 1441 1438 1435 1432 1428 1424 1421 1418 1414 1412 1409 1407 1404 1400 1397 1395 1393 1391 1390 1388 1386 1385 1383 1383 1382 1382 1382 1382 1382 1383 1384 1385 1386 1388
1522 1520 1518 1520 1517 1506 1502 1504 1504 1504 1503 1503 1510 1516 1516 1514 1514 1512 1513 1512 1510 1510 1509 1505 1502 1502 1501 1499 1496 1493 1492 1491 1489 1487 1485 1481 1479 1478 1476 1473 1471 1469 1467 1464 1461 1458 1456 1454 1452 1449 1446 1443 1440 1437 1434 1432 1427 1423 1420 1416 1412 1409 1406 1404 1401 1397 1394 1391 1389 1387 1385 1384 1382 1380 1379 1379 1378 1378 1378 1377 1377 1378 1379 1381 1382 1384
1524 1521 1520 1524 1518 1506 1503 1505 1503 1499 1498 1503 1514 1518 1515 1515 1516 1515 1515 1512 1509 1508 1508 1505 1503 1503 1501 1499 1496 1493 1490 1488 1488 1486 1485 1481 1477 1474 1472 1471 1469 1467 1464 1462 1459 1457 1455 1453 1450 1447 1445 1442 1438 1435 1433 1430 1426 1422 1417 1414 1411 1407 1404 1400 1397 1393 1390 1387 1385 1383 1381 1379 1377 1375 1375 1374 1374 1373 1373 1373 1374 1374 1375 1376 1378 1379
1520 1519 1520 1524 1521 1511 1506 1507 1504 1498 1500 1510 1517 1516 1514 1515 1514 1514 1513 1510 1509 1508 1506 1505 1505 1503 1501 1499 1496 1492 1488 1485 1484 1483 1482 1480 1477 1473 1470 1468 1466 1464 1461 1459 1457 1455 1452 1450 1447 1444 1442 1439 1436 1433 1430 1427 1423 1419 1414 1411 1408 1404 1401 1397 1393 1390 1387 1384 1382 1380 1377 1375 1373 1371 1370 1370 1369 1369 1369 1369 1370 1371 1372 1373 1374 1375
1516 1519 1521 1523 1522 1516 1511 1512 1510 1505 1508 1517 1516 1513 1515 1515 1513 1513 1511 1506 1506 1507 1506 1506 1505 1502 1500 1497 1494 1490 1485 1481 1479 1479 1478 1477 1475 1473 1470 1466 1464 1461 1458 1456 1453 1450 1448 1446 1444 1441 1438 1436 1433 1430 1427 1424 1420 1415 1411 1408 1405 1401 1398 1394 1391 1387 1384 1381 1378 1376 1374 1372 1369 1367 1366 1366 1365 1365 1365 1365 1366 1367 1368 1369 1370 1371
1517 1520 1522 1522 1520 1518 1517 1516 1514 1509 1511 1517 1519 1517 1518 1516 1515 1517 1513 1506 1504 1505 1506 1504 1501 1498 1496 1494 1490 1487 1482 1477 1474 1474 1474 1474 1473 1472 1469 1465 1462 1459 1456 1453 1450 1447 1444 1442 1439 1437 1435 1432 1429 1427 1424 1420 1417 1412 1408 1405 1402 1398 1395 1392 1388 1385 1382 1379 1375 1373 1370 1368 1366 1364 1363 1362 1361 1360 1361 1361 1362 1363 1364 1366 1367 1368
1518 1519 1521 1521 1517 1516 1517 1518 1517 1512 1511 1518 1521 1519 1518 1517 1515 1515 1514 1508 1503 1504 1504 1502 1500 1497 1493 1489 1486 1482 1479 1475 1471 1470 1472 1471 1470 1468 1465 1462 1460 1457 1453 1450 1446 1443 1440 1438 1435 1433 1431 1427 1425 1423 1420 1417 1413 1410 1405 1402 1399 1396 1392 1389 1386 1383 1379 1376 1373 1370 1367 1365 1363 1361 1359 1358 1357 1357 1357 1358 1359 1359 1361 1362 1363 1365
1519 1520 1521 1522 1519 1518 1520 1522 1522 1517 1515 1520 1522 1517 1516 1516 1512 1512 1514 1508 1502 1503 1503 1502 1500 1498 1493 1489 1484 1480 1479 1475 1467 1465 1468 1468 1466 1464 1461 1458 1455 1453 1450 1447 1443 1439 1436 1434 1431 1429 1427 1424 1421 1419 1417 1413 1410 1407 1403 1399 1396 1393 1390 1387 1384 1381 1377 1374 1371 1368 1365 1362 1360 1358 1356 1355 1354 1354 1355 1355 1355 1356 1357 1359 1361 1362
1520 1521 1522 1522 1520 1521 1523 1526 1524 1518 1516 1520 1520 1516 1515 1514 1511 1513 1514 1506 1501 1503 1503 1501 1499 1497 1493 1489 1484 1479 1477 1474 1466 1462 1463 1463 1461 1459 1457 1454 1451 1448 1445 1442 1440 1436 1433 1430 1428 1425 1423 1421 1418 1415 1413 1409 1406 1403 1399 1396 1393 1390 1387 1384 1381 1378 1375 1372 1369 1366 1363 1360 1357 1355 1353 1352 1352 1352 1352 1352 1353 1353 1354 1356 1357 1359
1525 1525 1527 1527 1524 1524 1526 1528 1526 1519 1517 1519 1518 1515 1514 1511 1512 1517 1515 1506 1502 1503 1502 1500 1497 1494 1492 1488 1483 1478 1475 1473 1468 1463 1460 1459 1456 1453 1452 1450 1446 1443 1440 1437 1435 1432 1429 1426 1424 1421 1419 1417 1415 1412 1409 1406 1402 1398 1395 1392 1389 1387 1384 1381 1378 1375 1372 1369 1366 1363 1360 1357 1354 1352 1351 1350 1349 1349 1349 1350 1350 1351 1352 1353 1355 1356
1527 1527 1528 1528 1526 1525 1527 1530 1527 1520 1517 1519 1517 1514 1513 1514 1516 1516 1512 1507 1504 1502 1500 1498 1495 1492 1489 1485 1481 1478 1474 1471 1468 1464 1459 1457 1454 1449 1446 1443 1440 1437 1434 1431 1429 1427 1425 1421 1419 1417 1415 1414 1412 1408 1405 1402 1398 1394 1391 1389 1386 1383 1381 1378 1375 1372 1369 1366 1364 1361 1358 1355 1352 1350 1348 1348 1348 1347 1347 1348 1348 1349 1350 1351 1352 1354
1526 1526 1526 1526 1527 1527 1528 1529 1527 1521 1518 1518 1516 1514 1515 1517 1517 1513 1507 1505 1503 1500 1497 1495 1492 1489 1487 1482 1478 1475 1471 1468 1465 1461 1457 1454 1450 1446 1443 1439 1436 1432 1428 1426 1424 1423 1421 1418 1414 1412 1410 1409 1407 1405 1402 1398 1394 1391 1388 1385 1382 1380 1377 1374 1372 1369 1366 1364 1361 1358 1356 1353 1350 1348 1347 1347 1346 1346 1346 1346 1347 1348 1349 1350 1351 1352
1526 1526 1526 1527 1528 1530 1527 1522 1520 1521 1520 1519 1518 1518 1517 1516 1513 1510 1505 1502 1499 1497 1495 1491 1488 1486 1483 1479 1475 1471 1467 1464 1461 1457 1454 1450 1446 1443 1439 1436 1433 1429 1425 1422 1420 1418 1417 1413 1410 1408 1406 1404 1403 1401 1398 1395 1390 1387 1384 1382 1379 1376 1373 1370 1368 1366 1363 1361 1359 1356 1354 1351 1349 1347 1346 1346 1345 1345 1345 1345 1346 1347 1347 1348 1350 1351
1525 1525 1525 1525 1524 1525 1523 1520 1519 1520 1520 1519 1519 1517 1515 1512 1510 1508 1504 1500 1496 1494 1492 1488 1484 1481 1479 1476 1472 1467 1464 1461 1457 1453 1450 1446 1443 1439 1436 1432 1430 1426 1423 1419 1416 1414 1413 1409 1406 1404 1401 1400 1399 1396 1394 1391 1387 1383 1381 1378 1376 1373 1370 1367 1365 1362 1360 1358 1356 1354 1352 1350 1348 1346 1345 1345 1345 1344 1344 1345 1345 1346 1347 1348 1349 1350
1526 1525 1525 1525 1524 1523 1521 1519 1519 1519 1518 1517 1516 1513 1510 1508 1506 1503 1500 1497 1493 1490 1488 1485 1481 1477 1474 1471 1467 1463 1460 1457 1454 1450 1446 1443 1439 1436 1432 1429 1427 1424 1421 1416 1412 1410 1408 1405 1402 1399 1397 1395 1394 1392 1389 1387 1384 1381 1377 1375 1372 1370 1367 1365 1362 1360 1358 1356 1354 1352 1350 1348 1347 1346 1345 1345 1344 1344 1344 1344 1345 1345 1346 1347 1348 1348
1528 1527 1527 1528 1528 1527 1522 1518 1518 1517 1515 1514 1511 1509 1506 1504 1501 1499 1496 1493 1490 1486 1483 1480 1477 1473 1470 1466 1462 1458 1455 1453 1450 1445 1442 1439 1435 1431 1428 1426 1423 1420 1417 1413 1409 1406 1403 1400 1398 1395 1393 1391 1389 1388 1385 1383 1380 1378 1374 1372 1369 1366 1364 1362 1359 1357 1355 1353 1352 1350 1349 1347 1346 1345 1344 1344 1343 1343 1343 1343 1344 1344 1345 1345 1346 1346
1532 1531 1531 1532 1531 1528 1523 1518 1517 1515 1512 1510 1508 1505 1503 1501 1497 1494 1492 1489 1486 1483 1479 1475 1472 1468 1464 1461 1457 1454 1451 1449 1446 1442 1438 1434 1431 1427 1424 1421 1418 1415 1412 1409 1406 1403 1400 1397 1394 1391 1389 1387 1385 1383 1381 1378 1376 1374 1371 1368 1366 1363 1361 1359 1356 1354 1353 1351 1349 1348 1347 1346 1345 1344 1343 1343 1343 1343 1342 1342 1342 1343 1343 1343 1344 1344
1536 1534 1534 1533 1530 1525 1520 1517 1514 1510 1507 1506 1505 1503 1501 1499 1494 1490 1488 1485 1482 1478 1474 1470 1468 1464 1459 1455 1453 1450 1447 1444 1442 1439 1434 1430 1427 1423 1420 1417 1414 1411 1408 1405 1402 1400 1397 1394 1391 1388 1385 1383 1381 1379 1377 1374 1372 1370 1368 1365 1362 1360 1358 1355 1353 1352 1350 1348 1347 1346 1345 1344 1343 1342 1342 1342 1341 1341 1341 1341 1341 1341 1341 1341 1341 1341
1538 1536 1534 1533 1529 1525 1522 1519 1516 1512 1506 1503 1502 1499 1496 1494 1491 1487 1484 1482 1478 1474 1470 1466 1462 1459 1456 1452 1450 1447 1443 1440 1438 1435 1430 1426 1423 1420 1416 1413 1410 1407 1404 1401 1399 1396 1394 1391 1388 1384 1381 1379 1377 1375 1373 1371 1369 1367 1365 1362 1359 1357 1355 1352 1350 1349 1347 1346 1345 1344 1343 1342 1341 1341 1340 1340 1340 1339 1339 1339 1339 1339 1339 1339 1339 1339
1541 1539 1537 1534 1531 1528 1524 1521 1518 1514 1507 1502 1498 1495 1492 1490 1487 1484 1481 1478 1474 1471 1467 1462 1458 1454 1451 1449 1447 1445 1441 1437 1434 1430 1426 1422 1419 1417 1413 1410 1407 1403 1400 1398 1395 1392 1389 1387 1384 1381 1377 1375 1373 1371 1369 1367 1366 1364 1362 1359 1357 1355 1352 1350 1348 1346 1345 1344 1343 1342 1341 1340 1339 1339 1339 1338 1338 1337 1337 1337 1337 1337 1337 1337 1337 1337